This demonstration page uses our WeatherBlox Daily Observations layout. Learn more.

Left ArrowRight Arrow

40.92945, -100.16068

Hourly Observations for November 19, 2020

Temp ( °F °C ) Dew Point ( °F °C ) Humidity (%) Winds ( mph kmh ) Pressure ( in mb ) Visibility ( mi km ) Precip ( " mm )
12:15 am 00:15 Clear 49 9.5 38 3.1 65 65 SSW 8 13 29.76 1008 10 16.0934 0 0
12:35 am 00:35 Clear 45 7.4 36 2.3 70 70 NW 3 6 29.79 1009 10 16.0934 0 0
12:55 am 00:55 Clear 40 4.5 35 1.4 81 81 N 6 9 29.8 1009 10 16.0934 0 0
1:15 am 01:15 Clear 38 3.5 33 0.8 83 83 N 5 7 29.81 1010 10 16.0934 0 0
1:35 am 01:35 Clear 37 3 33 0.6 84 84 NW 5 7 29.82 1010 10 16.0934 0 0
1:55 am 01:55 Clear 35 1.8 32 -0.2 87 87 W 3 6 29.84 1010 10 16.0934 0 0
2:15 am 02:15 Clear 36 2.2 32 0 86 86 WNW 7 11 29.82 1010 10 16.0934 0 0
2:35 am 02:35 Clear 37 2.8 32 0.1 83 83 W 7 11 29.83 1010 10 16.0934 0 0
2:55 am 02:55 Clear 38 3.1 32 0.1 81 81 W 6 9 29.84 1010 10 16.0934 0 0
3:15 am 03:15 Clear 39 3.7 33 0.8 82 82 NW 9 15 29.84 1011 10 16.0934 0 0
3:35 am 03:35 Clear 39 3.8 33 0.6 80 80 WNW 7 11 29.84 1010 10 16.0934 0 0
3:55 am 03:55 Clear 38 3.6 32 0.1 78 78 WNW 7 11 29.84 1011 10 16.0934 0 0
4:15 am 04:15 Clear 40 4.5 32 -0.2 72 72 WNW 10 17 29.83 1010 10 16.0934 0 0
4:35 am 04:35 Clear 39 4.1 31 -0.5 72 72 WNW 8 13 29.85 1011 10 16.0934 0 0
4:55 am 04:55 Clear 39 3.7 31 -0.6 74 74 WNW 9 15 29.86 1011 10 16.0934 0 0
5:15 am 05:15 Clear 38 3.1 31 -0.7 76 76 W 5 7 29.88 1012 10 16.0934 0 0
5:35 am 05:35 Clear 37 2.8 31 -0.8 77 77 W 10 17 29.89 1012 10 16.0934 0 0
5:55 am 05:55 Clear 37 3 30 -0.9 76 76 W 7 11 29.9 1012 10 16.0934 0 0
6:15 am 06:15 Clear 36 2.1 30 -1 80 80 WNW 9 15 29.91 1013 10 16.0934 0 0
6:35 am 06:35 Clear 36 2.1 30 -1 80 80 W 8 13 29.91 1013 10 16.0934 0 0
6:55 am 06:55 Clear 39 3.7 31 -0.5 74 74 WNW 9 15 29.89 1012 10 16.0934 0 0
7:15 am 07:15 Clear 37 2.6 31 -0.7 79 79 WNW 7 11 29.91 1013 10 16.0934 0 0
7:35 am 07:35 Sunny 36 2 31 -0.8 82 82 W 8 13 29.92 1013 10 16.0934 0 0
7:55 am 07:55 Sunny 36 2.4 31 -0.7 80 80 W 5 7 29.92 1013 10 16.0934 0 0
8:15 am 08:15 Sunny 39 4 32 0 75 75 W 7 11 29.93 1013 10 16.0934 0 0
8:35 am 08:35 Sunny 41 4.9 33 0.5 73 73 W 8 13 29.93 1014 10 16.0934 0 0
8:55 am 08:55 Sunny 44 6.9 35 1.5 69 69 W 6 9 29.92 1013 10 16.0934 0 0
9:15 am 09:15 Sunny 48 9 35 1.9 61 61 W 8 13 29.91 1013 10 16.0934 0 0
9:35 am 09:35 undefined N/A N/A N/A undefined N/A N/A N/A 0 0
9:55 am 09:55 undefined N/A N/A N/A undefined N/A N/A N/A 0 0
10:15 am 10:15 undefined N/A N/A N/A undefined N/A N/A N/A 0 0
10:35 am 10:35 Sunny 60 15.5 37 2.5 42 42 WNW 14 22 29.86 1011 N/A 0 0
10:55 am 10:55 Sunny 62 16.7 36 2 37 37 NW 12 19 29.85 1011 10 16.0934 0 0
11:16 am 11:16 undefined 63 17 36 2 37 37 undefined N/A N/A N/A 0 0
11:35 am 11:35 undefined 65 18.6 35 1.5 32 32 NW 9 15 29.83 1010 10 16.0934 0 0
11:55 am 11:55 Sunny 67 19.3 35 1.6 31 31 NW 8 13 29.83 1010 10 16.0934 0 0
12:15 pm 12:15 Sunny 68 20.1 33 0.6 27 27 WNW 8 13 29.82 1010 10 16.0934 0 0
12:35 pm 12:35 Sunny 71 21.4 31 -0.6 23 23 NNW 13 20 29.81 1009 10 16.0934 0 0
12:55 pm 12:55 Sunny 71 21.5 29 -1.6 21 21 NNW 10 17 29.81 1009 10 16.0934 0 0
1:15 pm 13:15 Sunny 71 21.6 31 -0.7 23 23 WNW 7 11 29.8 1009 10 16.0934 0 0
1:35 pm 13:35 Sunny 72 22 31 -0.6 22 22 NW 12 19 29.81 1009 10 16.0934 0 0
1:55 pm 13:55 Sunny 73 22.5 29 -1.6 20 20 NW 12 19 29.8 1009 10 16.0934 0 0
2:15 pm 14:15 Sunny 73 22.9 29 -1.8 19 19 WNW 12 19 29.8 1009 10 16.0934 0 0
2:35 pm 14:35 Sunny 73 22.6 28 -2 19 19 NW 8 13 29.8 1009 10 16.0934 0 0
2:55 pm 14:55 Sunny 73 22.8 29 -1.6 20 20 WNW 12 19 29.81 1009 10 16.0934 0 0
3:15 pm 15:15 Sunny 73 23 28 -2.4 18 18 NW 16 26 29.81 1009 10 16.0934 0 0
3:35 pm 15:35 Sunny 73 22.5 31 -0.4 22 22 W 10 17 29.82 1010 10 16.0934 0 0
3:55 pm 15:55 Sunny 73 22.5 29 -1.4 20 20 NW 13 20 29.82 1010 10 16.0934 0 0
4:15 pm 16:15 Sunny 71 21.8 29 -1.5 21 21 NW 13 20 29.84 1010 10 16.0934 0 0
4:35 pm 16:35 Sunny 69 20.8 29 -1.8 22 22 NW 12 19 29.87 1011 10 16.0934 0 0
4:55 pm 16:55 Sunny 66 19.1 29 -1.6 25 25 NW 12 19 29.89 1012 10 16.0934 0 0
5:15 pm 17:15 Sunny 61 16.3 30 -1.3 30 30 NW 10 17 29.92 1013 10 16.0934 0 0
5:35 pm 17:35 Clear 58 14.5 29 -1.6 33 33 NW 9 15 29.96 1015 10 16.0934 0 0
5:55 pm 17:55 Clear 54 12.1 29 -1.7 39 39 NW 8 13 29.99 1016 10 16.0934 0 0
6:15 pm 18:15 Clear 51 10.3 29 -1.9 43 43 WNW 9 15 30.02 1017 10 16.0934 0 0
6:35 pm 18:35 Clear 49 9.6 29 -1.6 46 46 WNW 9 15 30.03 1017 7 11.26538 0 0
6:55 pm 18:55 Clear 48 8.8 28 -2 47 47 WNW 9 15 30.05 1018 10 16.0934 0 0
7:15 pm 19:15 Clear 46 7.7 29 -1.7 52 52 WNW 8 13 30.07 1018 10 16.0934 0 0
7:35 pm 19:35 Clear 44 6.6 29 -1.4 57 57 WNW 7 11 30.09 1019 10 16.0934 0 0
7:55 pm 19:55 Clear 47 8.4 28 -2.2 48 48 WNW 10 17 30.09 1019 10 16.0934 0 0
8:15 pm 20:15 Clear 46 7.7 28 -2.2 50 50 WNW 9 15 30.1 1019 10 16.0934 0 0
8:35 pm 20:35 Clear 47 8.3 28 -2.3 48 48 WNW 12 19 30.11 1020 10 16.0934 0 0
8:55 pm 20:55 Clear 48 9.1 28 -2.4 45 45 NW 10 17 30.11 1020 10 16.0934 0 0
9:15 pm 21:15 Clear 46 8 28 -2.5 48 48 WNW 7 11 30.13 1020 10 16.0934 0 0
9:35 pm 21:35 Clear 43 6.1 28 -2.3 55 55 NW 7 11 30.15 1021 10 16.0934 0 0
9:55 pm 21:55 Clear 40 4.5 27 -2.8 59 59 NNW 10 17 30.19 1022 10 16.0934 0 0
10:15 pm 22:15 Clear 42 5.8 28 -2 58 58 N 9 15 30.18 1022 10 16.0934 0 0
10:35 pm 22:35 Clear 50 10.2 34 1.1 54 54 N 12 19 30.16 1021 10 16.0934 0 0
10:55 pm 22:55 Clear 51 10.7 35 1.7 54 54 N 17 28 30.16 1021 10 16.0934 0 0
11:15 pm 23:15 Clear 50 9.9 34 1 54 54 N 16 26 30.18 1022 10 16.0934 0 0
11:35 pm 23:35 Clear 48 9.1 33 0.4 55 55 N 10 17 30.2 1023 10 16.0934 0 0
11:55 pm 23:55 Clear 46 8 32 0 57 57 N 8 13 30.22 1023 10 16.0934 0 0

Powered by AerisWeather